Simultaneous Nadir Overpasses (SNOs) Predictions

Prediction of SNOs between NOAA-20 and AQUA Satellite Orbit:

Table of predicted SNOs for the next 14.0 days since TLE Epoch: 10/22/2022
Index Date (NOAA-20) Time (NOAA-20) Lat,Lon (NOAA-20) SZA (NOAA-20 ) Date (AQUA) Time (AQUA) Lat,Lon (AQUA) SZA (AQUA ) Distance(km) Time Diff (sec)
1 10/24/2022 08:52:33 79.12, -59.36 103.91 10/24/2022 08:53:24 79.12, -59.31 103.86 1.08 51
2 10/24/2022 09:43:07 -79.52, 111.01 76.70 10/24/2022 09:42:40 -79.52, 110.96 76.67 1.10 27
3 10/27/2022 00:18:39 -79.27,-109.77 75.46 10/27/2022 00:19:29 -79.26,-109.91 75.47 3.10 50
4 10/27/2022 01:09:14 79.55, 59.72 104.13 10/27/2022 01:08:46 79.54, 59.63 104.17 1.91 28
5 10/29/2022 15:44:48 79.23,-161.64 105.47 10/29/2022 15:45:36 79.23,-161.67 105.44 0.75 48
6 10/29/2022 16:35:23 -79.59, 8.55 75.09 10/29/2022 16:34:53 -79.58, 8.40 75.03 3.11 30
7 11/01/2022 07:10:59 -79.21, 146.66 73.66 11/01/2022 07:11:44 -79.21, 146.71 73.71 1.13 45
8 11/01/2022 08:01:35 79.48, -43.91 105.94 11/01/2022 08:01:02 79.48, -43.80 105.94 2.27 33
9 11/03/2022 22:37:03 79.36, 96.28 106.93 11/03/2022 22:37:46 79.35, 96.14 106.92 2.99 43



Historial Predications of SNOs between NOAA-20 and AQUA
